Showing default

BLACK KITE-2, 68474

Orbit data source: Space-Track

BLACK KITE-2, 68474 is a Taiwanese payload satellite in SSO that was launched on Mon, 30 Mar 2026 UTC via an FALCON 9 launch vehicle from the Air Force Western Test Range (AFWTR). Payload-class satellites include a variety of spacecraft equipped with specific instruments for various scientific and technological missions. These include communications satellites like Starlink; space stations such as the ISS; scientific satellites like the Hubble; Earth observation satellites from companies like Planet Labs, Umbra, and HawkEye 360; GPS; miniature CubeSats for education and research; and military/defense satellites.

Loading next visibility...
Identifier
68474, 2026-067BL
Orbit
SSO
Country
Flag of TWTW / TWN
Related business
Manufacturer
RAPTEK
Mission
Operational spacecraft
Bus & Motor
CUBESAT 8U, Unknown motor
Mass
15 kg wet, ~15 kg dry
Launch date (UTC)
2026-03-30 (2 months ago)
Launch vehicle
FALCON 9
Launch site
Air Force Western Test Range (AFWTR)
Object type
Payload
Rocket body
Debris
Shape & HBR
Unknown shape, 14.5 m
Radar Cross Section
Medium (>0.1 m² and <1 m²)

Expand to show TLE details & history
Last TLE update: 4 days ago

TLE from 4 days ago
0 BLACK KITE-2
1 68474U 26067BL  26153.80077357  .00002321  00000-0  23149-3 0  9994
2 68474  97.7544 112.3040 0001039 345.7931  14.3259 14.92512596  9583
Epoch: 2026-06-02T19:13Z
TLE epoch observation values (Epoch: 2026-06-02T19:13:06.836Z)
Latitude
Longitude
-67.24302°
Altitude
592.445 km
Speed
7.564 km/s
True Right ascension
07h 29m 12s
True Declination
0° 00' 00"
Sunlit
Object was in daylight at epoch
Visualization orbit readout
Latitude
Unknown
Longitude
Unknown
Altitude
Unknown
Speed
Unknown
Apparent Right ascension
Unknown
Apparent Declination
Unknown
Sunlit
N/A
Visualization observer readout
Local Sidereal Time
02:32:54
Azimuth
Unknown
Elevation
Unknown
Doppler factor
Unknown
Orbital elements
Apogee altitude
587.845 km
Perigee altitude
586.398 km
Semi-major axis
6,965.259 km
Eccentricity
0.0001
Inclination
97.7544°
RAAN
112.304°
Arg. of periapsis
345.7931°
True anomaly
14.32885°
Mean anomaly
14.3259°
Eccentric anomaly
14.32737°
Mean motion
3.73368 °/min
Orbital period
96.42 mins
BSTAR
0.00023149
Loading maneuver chart data...
Computing Atmospheric mass density...
Loading historical data...
Loading historical data...
Loading historical data...
Loading historical data...
Loading historical data...
Loading historical data...
Loading historical data...

Documentation

Showing up to 5 results
|